Simultaneous Nadir Overpasses (SNOs) Predictions

Prediction of SNOs between LANDSAT-8 and METOP-B Satellite Orbit:

Table of predicted SNOs for the next 14.0 days since TLE Epoch: 12/27/2013
Index Date (LANDSAT-8) Time (LANDSAT-8) Lat,Lon (LANDSAT-8) SZA (LANDSAT-8 ) Date (METOP-B) Time (METOP-B) Lat,Lon (METOP-B) SZA (METOP-B ) Distance(km) Time Diff (sec)
1 12/28/2013 21:51:56 81.09,-108.68 106.15 12/28/2013 21:51:21 81.08,-108.75 106.12 1.36 35
2 12/28/2013 22:41:22 -81.11, 59.33 73.80 12/28/2013 22:42:00 -81.11, 59.51 73.77 3.22 38
3 12/31/2013 17:26:09 81.08, -42.32 105.92 12/31/2013 17:25:43 81.08, -42.29 105.91 0.51 26
4 12/31/2013 18:15:35 -81.11, 125.71 74.03 12/31/2013 18:16:23 -81.10, 125.59 74.03 2.17 48
5 01/03/2014 13:00:23 81.07, 23.92 105.61 01/03/2014 13:00:07 81.07, 23.75 105.59 3.04 16
6
